SWA4664 KHRL-KHOU

Flight info

Callsign SWA4664
Flight time N/A
Altitude 33000
Route CRP BELLR6
Aircraft B738/M-SADE2E3GIJ4RWZ/LB1D1

Departure

Time 2026-04-12 19:12
Airport Valley International Airport (KHRL)

Arrival

Time N/A
Airport William P. Hobby Airport (KHOU)
Time Latitude Longitude Altitude Speed Heading
2026-04-12 18:49 26.22384 -97.66116 47 ft 0 kts 271°
2026-04-12 19:04 26.22384 -97.66103 47 ft 2 kts 270°
2026-04-12 19:04 26.22384 -97.66085 48 ft 2 kts 269°
2026-04-12 19:05 26.22384 -97.66067 48 ft 2 kts 269°
2026-04-12 19:05 26.22385 -97.66057 48 ft 0 kts 269°
2026-04-12 19:07 26.22385 -97.66058 48 ft 0 kts 269°
2026-04-12 19:07 26.22377 -97.66064 43 ft 2 kts 173°
2026-04-12 19:07 26.22384 -97.66049 48 ft 4 kts 22°
2026-04-12 19:07 26.22433 -97.66046 48 ft 9 kts
2026-04-12 19:08 26.22514 -97.66042 48 ft 14 kts
2026-04-12 19:08 26.22628 -97.66039 48 ft 19 kts
2026-04-12 19:08 26.22771 -97.66038 46 ft 21 kts
2026-04-12 19:08 26.22920 -97.66036 45 ft 21 kts
2026-04-12 19:09 26.23065 -97.66033 46 ft 21 kts
2026-04-12 19:09 26.23207 -97.66031 44 ft 20 kts
2026-04-12 19:09 26.23345 -97.66030 46 ft 19 kts
2026-04-12 19:09 26.23476 -97.66029 49 ft 19 kts
2026-04-12 19:10 26.23605 -97.66027 49 ft 18 kts
2026-04-12 19:10 26.23729 -97.66024 49 ft 18 kts
2026-04-12 19:10 26.23849 -97.66026 51 ft 17 kts 358°
2026-04-12 19:10 26.23965 -97.66021 51 ft 17 kts
2026-04-12 19:11 26.24028 -97.65927 50 ft 19 kts 88°
2026-04-12 19:11 26.23915 -97.65862 51 ft 24 kts 179°
2026-04-12 19:11 26.23555 -97.65864 50 ft 90 kts 180°
2026-04-12 19:11 26.22695 -97.65873 128 ft 147 kts 176°
2026-04-12 19:12 26.21654 -97.65822 837 ft 151 kts 163°
2026-04-12 19:12 26.20879 -97.65158 1800 ft 147 kts 124°
2026-04-12 19:12 26.20637 -97.63918 2090 ft 187 kts 90°
2026-04-12 19:12 26.21158 -97.62494 2604 ft 209 kts 65°
2026-04-12 19:13 26.21982 -97.61113 3018 ft 226 kts 62°
2026-04-12 19:13 26.22903 -97.59601 3339 ft 248 kts 62°
2026-04-12 19:13 26.23899 -97.57992 4056 ft 252 kts 58°
2026-04-12 19:13 26.24903 -97.56352 4784 ft 257 kts 61°
2026-04-12 19:14 26.25876 -97.54656 5383 ft 272 kts 62°
2026-04-12 19:14 26.27052 -97.52906 6017 ft 292 kts 43°
2026-04-12 19:14 26.28895 -97.51888 6819 ft 305 kts
2026-04-12 19:14 26.31021 -97.51763 7763 ft 303 kts 359°
2026-04-12 19:15 26.33145 -97.51741 8689 ft 308 kts 358°
2026-04-12 19:15 26.35314 -97.51716 9559 ft 314 kts 358°
2026-04-12 19:15 26.37515 -97.51672 10438 ft 317 kts 359°
2026-04-12 19:15 26.39707 -97.51613 11261 ft 323 kts 359°
2026-04-12 19:16 26.42050 -97.51541 11556 ft 349 kts 360°
2026-04-12 19:16 26.44552 -97.51454 11898 ft 368 kts
2026-04-12 19:16 26.47143 -97.51350 12581 ft 375 kts
2026-04-12 19:16 26.49756 -97.51236 13452 ft 376 kts
2026-04-12 19:17 26.52390 -97.51115 14249 ft 379 kts
2026-04-12 19:17 26.55011 -97.50993 14949 ft 383 kts
2026-04-12 19:17 26.57688 -97.50866 15681 ft 386 kts
2026-04-12 19:17 26.60390 -97.50738 16418 ft 389 kts
2026-04-12 19:18 26.63107 -97.50608 17146 ft 393 kts
2026-04-12 19:18 26.65856 -97.50477 17855 ft 397 kts
2026-04-12 19:18 26.68632 -97.50345 18540 ft 400 kts
2026-04-12 19:18 26.71420 -97.50212 19172 ft 403 kts
2026-04-12 19:19 26.74246 -97.50078 19744 ft 408 kts
2026-04-12 19:19 26.77097 -97.49943 20308 ft 412 kts
2026-04-12 19:19 26.79983 -97.49805 20886 ft 417 kts
2026-04-12 19:19 26.82898 -97.49666 21465 ft 421 kts
2026-04-12 19:20 26.85799 -97.49528 22029 ft 425 kts
2026-04-12 19:20 26.88763 -97.49386 22575 ft 429 kts
2026-04-12 19:20 26.91771 -97.49242 23117 ft 433 kts
2026-04-12 19:20 26.94798 -97.49098 23637 ft 437 kts
2026-04-12 19:21 26.97864 -97.48951 24083 ft 441 kts
2026-04-12 19:21 27.00906 -97.48805 24550 ft 444 kts
2026-04-12 19:21 27.04010 -97.48657 24981 ft 448 kts
2026-04-12 19:21 27.07144 -97.48507 25391 ft 452 kts
2026-04-12 19:22 27.10306 -97.48356 25802 ft 456 kts
2026-04-12 19:22 27.13494 -97.48203 26209 ft 460 kts
2026-04-12 19:22 27.16677 -97.48051 26599 ft 464 kts
2026-04-12 19:22 27.19918 -97.47895 27005 ft 468 kts
2026-04-12 19:23 27.23189 -97.47738 27396 ft 471 kts
2026-04-12 19:23 27.26493 -97.47579 27771 ft 475 kts
2026-04-12 19:23 27.29767 -97.47422 28122 ft 479 kts 360°
2026-04-12 19:23 27.33117 -97.47261 28436 ft 484 kts 359°
2026-04-12 19:24 27.36493 -97.47099 28790 ft 487 kts 359°
2026-04-12 19:24 27.39903 -97.46934 29172 ft 490 kts 359°
2026-04-12 19:24 27.43322 -97.46769 29525 ft 493 kts 359°
2026-04-12 19:24 27.46763 -97.46603 29848 ft 496 kts 359°
2026-04-12 19:25 27.50228 -97.46436 30185 ft 500 kts 359°
2026-04-12 19:25 27.53721 -97.46267 30522 ft 502 kts 359°
2026-04-12 19:25 27.57170 -97.46100 30944 ft 502 kts 359°
2026-04-12 19:25 27.60659 -97.45930 31416 ft 500 kts 359°
2026-04-12 19:26 27.64136 -97.45761 31833 ft 500 kts 359°
2026-04-12 19:26 27.67619 -97.45592 32189 ft 500 kts 359°
2026-04-12 19:26 27.71109 -97.45423 32565 ft 501 kts 359°
2026-04-12 19:26 27.74588 -97.45255 32950 ft 501 kts 359°
2026-04-12 19:27 27.78097 -97.45085 32987 ft 506 kts 359°
2026-04-12 19:27 27.85092 -97.44745 32993 ft 502 kts 359°
2026-04-12 19:27 27.88562 -97.44394 32972 ft 503 kts 11°
2026-04-12 19:28 27.91867 -97.43077 33004 ft 506 kts 28°
2026-04-12 19:28 27.94782 -97.40843 33011 ft 506 kts 39°
2026-04-12 19:28 27.97506 -97.38376 32988 ft 507 kts 40°
2026-04-12 19:29 28.02976 -97.33306 33001 ft 509 kts 40°
2026-04-12 19:29 28.08553 -97.28235 32995 ft 514 kts 39°
2026-04-12 19:30 28.14076 -97.23294 32975 ft 507 kts 39°
2026-04-12 19:30 28.19665 -97.18280 33004 ft 517 kts 39°
2026-04-12 19:31 28.25329 -97.13175 32988 ft 519 kts 39°
2026-04-12 19:31 28.30942 -97.08106 32995 ft 518 kts 39°
2026-04-12 19:32 28.36610 -97.02979 32379 ft 521 kts 39°
2026-04-12 19:32 28.39439 -97.00419 31772 ft 517 kts 39°
2026-04-12 19:32 28.42231 -96.97889 31297 ft 511 kts 39°
2026-04-12 19:32 28.45002 -96.95378 30784 ft 507 kts 39°